RH
75 72 72 68 72 73 74 74 74 76 77 78 79 77 76 78 80 68 74 70 64 58 58 46 44 37 38 42 39 40 44 43 33 30 31 31 34 31 32 30 30 29 31 36 33
73 72 72 71 72 72 73 74 75 76 77 78 80 77 77 79 88 70 64 55 54 54 51 47 41 40 39 42 45 47 55 35 40 35 31 30 33 32 36 36 33 30 28 30 31
71 70 71 71 72 73 73 74 75 75 77 78 80 78 78 84 77 63 53 52 49 51 58 52 51 45 44 43 45 46 42 34 45 41 32 33 35 34 33 38 31 29 32 30 31
70 71 71 72 73 73 73 73 71 75 77 79 80 78 81 87 24 62 50 47 49 55 53 51 46 44 45 47 40 38 40 34 42 44 40 41 40 39 35 36 28 30 30 31 31
70 71 71 72 72 71 70 70 71 76 78 80 81 78 82 52 63 50 50 48 50 56 52 54 46 42 40 40 43 42 43 42 45 43 41 37 41 40 38 31 31 29 28 31 34
70 71 73 72 71 71 71 73 76 78 79 81 79 79 81 47 55 48 51 45 53 60 60 59 57 54 47 48 46 47 47 46 44 42 38 37 42 39 30 31 29 26 30 34 32
70 71 74 74 72 73 74 76 78 80 82 78 74 77 73 46 55 54 47 50 51 61 67 63 64 60 54 53 51 48 45 45 44 40 40 37 35 36 33 30 29 25 30 34 36
72 72 74 73 72 74 78 80 82 83 81 72 72 82 68 57 59 50 49 50 50 54 62 62 62 61 57 53 43 46 44 43 44 42 42 34 18 39 31 29 27 28 33 36 37
72 73 75 73 74 78 83 84 84 82 69 74 81 79 64 57 56 53 53 55 58 54 60 44 58 57 54 53 68 51 50 40 46 39 42 35 32 33 34 30 29 31 36 38 38
74 75 76 74 76 82 85 84 79 69 67 67 60 57 51 61 56 52 55 56 59 59 64 63 65 63 64 63 62 44 44 33 40 41 41 44 36 30 32 32 31 34 39 41 42
75 77 75 75 77 81 90 75 68 47 72 79 62 59 53 49 52 58 57 60 61 60 62 64 70 74 45 54 40 42 38 34 47 44 44 43 40 33 32 32 34 36 39 43 44
75 77 75 74 74 82 81 87 88 79 89 68 59 54 51 58 59 60 58 59 59 55 58 60 66 41 47 51 48 40 40 38 47 44 37 47 42 40 39 35 31 34 41 46 54
77 77 75 74 78 81 86 86 75 76 94 71 51 59 63 61 67 69 64 71 63 56 59 60 45 44 46 49 47 43 40 39 40 51 47 46 33 39 36 39 37 39 44 49 53
77 76 74 77 81 91 90 78 76 71 85 64 63 63 63 63 71 61 66 71 65 63 64 56 52 51 52 51 50 51 46 42 50 56 58 46 44 28 41 40 43 45 41 40 37
76 75 75 79 92 91 83 80 79 64 59 52 66 59 65 66 61 74 65 70 69 68 60 54 65 62 61 52 46 56 60 66 69 82 61 51 66 23 43 44 46 42 39 40 43
76 74 77 83 91 85 80 86 77 71 48 53 66 66 70 70 68 74 74 68 67 72 66 60 59 66 60 57 53 55 58 72 86 82 68 34 40 24 46 40 46 42 42 42 43
75 75 82 75 90 82 87 83 77 72 40 55 63 61 56 62 69 77 79 82 72 66 70 64 67 61 56 64 56 55 57 84 73 82 59 55 58 29 36 38 37 42 45 46 46
76 78 76 71 84 85 90 55 52 48 57 48 51 56 57 58 64 70 78 81 78 67 77 84 62 70 60 64 64 75 59 78 51 83 76 54 66 39 44 41 40 41 44 46 48
80 83 82 79 78 90 85 86 62 57 53 61 55 62 61 62 59 79 82 75 63 62 66 85 68 68 64 64 59 70 84 60 70 74 79 68 55 42 44 48 47 46 45 46 47
85 86 79 83 89 94 93 74 75 57 56 60 58 55 50 59 61 67 62 57 63 60 64 64 73 65 66 64 62 61 54 69 77 77 84 79 62 70 51 52 51 50 49 47 51
94 93 79 87 85 95 95 88 76 65 63 63 67 74 72 68 62 68 56 66 65 62 73 72 65 62 74 76 71 68 68 68 73 78 84 86 60 49 44 54 53 50 47 48 51
97 94 82 88 96 97 97 84 71 71 67 69 72 74 75 71 76 71 62 68 70 65 73 76 77 85 69 59 60 58 55 55 84 71 90 87 55 43 39 50 49 50 44 49 54
97 91 88 90 99 99 85 78 72 70 75 81 81 78 79 84 79 74 74 71 70 79 81 79 80 91 69 63 60 64 57 50 55 73 82 84 53 44 47 49 50 48 49 53 56
98 99 100 99 95 92 88 81 75 73 78 78 83 80 75 84 78 86 87 76 75 75 66 75 85 75 81 68 65 66 58 52 57 86 68 72 56 46 49 49 46 51 54 57 57
98 93 84 99 98 92 86 80 77 91 81 79 78 76 75 97 94 87 92 87 81 74 84 84 93 88 78 76 69 69 68 61 66 62 66 54 57 43 40 45 47 54 56 54 58
97 89 88 95 86 86 86 88 79 84 90 89 82 84 88 91 83 95 93 95 83 84 93 86 98 88 95 82 78 82 72 65 62 59 61 58 59 41 43 52 55 58 54 56 57
88 82 77 85 94 93 90 86 80 76 90 85 85 90 87 85 84 90 85 85 87 93 90 92 89 93 97 86 80 85 74 71 62 54 52 60 51 49 47 52 58 60 52 55 54
Wind_Speed
15 15 15 16 16 17 18 18 18 19 19 19 19 20 18 17 16 1 2 3 5 13 12 8 1 3 1 1 1 3 4 1 1 6 4 3 3 1 0 3 2 2 5 5 8
15 16 16 16 17 18 19 19 20 19 19 20 20 20 18 17 4 5 3 7 8 8 4 6 3 6 2 1 1 4 2 4 2 2 4 5 3 4 2 1 1 4 5 5 5
14 15 15 16 16 18 19 20 20 20 19 19 20 19 16 9 2 1 7 9 10 6 3 1 2 1 1 1 1 2 3 3 0 0 4 4 3 1 5 2 4 7 5 5 4
14 15 16 16 17 18 20 20 21 20 19 18 19 19 19 1 3 3 10 11 11 8 3 1 1 1 1 1 0 2 2 3 3 1 2 3 1 1 3 3 6 9 6 5 4
13 15 16 18 19 20 21 22 21 20 19 19 18 15 6 4 2 4 10 8 6 7 4 2 3 4 4 3 3 2 2 3 1 2 3 3 1 2 4 5 5 7 6 5 3
14 15 17 18 19 21 23 22 22 21 20 19 14 11 2 2 1 6 7 5 5 4 4 5 2 3 2 2 5 3 1 3 2 3 2 2 1 3 4 6 7 5 4 3 6
14 15 17 19 21 22 23 23 22 22 20 14 5 2 3 1 4 7 7 3 3 1 3 3 3 1 1 2 0 4 3 2 3 3 2 3 3 7 3 9 8 5 1 6 6
13 15 17 19 21 23 24 23 23 22 15 4 2 1 0 2 3 5 7 4 5 3 1 3 2 1 2 2 4 2 3 1 1 4 2 2 5 3 6 9 8 4 6 7 5
12 13 15 18 21 24 23 25 21 10 4 3 1 2 1 1 4 5 4 5 7 3 2 2 2 2 2 5 5 3 3 4 2 5 2 3 3 1 5 6 6 5 7 7 6
11 12 14 17 20 22 24 21 7 2 3 2 2 3 5 4 4 5 4 5 4 5 2 3 4 3 3 4 5 6 4 4 4 4 3 2 6 5 2 5 9 6 7 7 8
11 11 15 17 20 22 14 5 8 5 9 1 5 3 4 7 3 2 3 7 2 2 2 2 5 4 8 5 1 3 3 2 2 2 2 4 7 8 6 5 8 8 8 7 8
10 11 14 17 18 21 4 6 1 2 7 6 5 3 3 2 3 5 7 3 4 1 1 6 3 6 5 4 5 4 2 3 1 2 1 1 9 8 6 6 8 9 8 8 6
9 11 14 16 17 3 6 3 1 3 1 7 3 3 2 3 2 5 5 3 1 3 1 4 4 5 3 2 3 3 4 4 3 1 2 4 6 2 4 4 5 6 6 5 8
7 10 13 17 3 3 3 5 2 4 6 7 1 2 1 0 2 1 2 1 3 2 3 4 4 3 1 1 5 3 4 2 5 4 4 3 6 4 2 5 6 7 8 8 6
7 9 11 7 2 3 2 5 2 3 6 4 2 2 0 2 2 1 1 2 2 3 5 5 4 3 2 2 3 4 6 4 3 5 5 3 5 6 5 4 5 5 7 6 6
7 7 8 2 1 1 4 3 3 8 8 1 2 1 2 1 1 1 2 1 1 2 1 4 3 2 1 3 1 8 6 7 5 4 3 6 6 6 7 8 7 4 6 7 6
6 6 4 1 2 4 3 4 7 6 2 2 3 2 1 2 2 2 1 3 1 4 3 4 2 3 1 4 6 4 5 2 5 4 8 2 3 9 4 4 11 9 8 7 7
6 5 3 2 2 2 3 5 4 3 4 2 1 2 4 4 2 2 2 2 3 3 2 3 8 3 1 2 5 4 3 6 9 5 4 1 6 5 4 8 10 8 8 6 6
3 1 2 2 1 3 5 4 9 6 2 1 3 3 0 2 1 1 3 2 1 6 4 1 5 1 1 1 2 2 3 2 4 2 4 4 3 6 4 4 6 8 7 6 6
2 1 2 1 3 4 4 6 4 1 3 2 4 2 4 3 3 3 3 2 1 2 2 2 3 2 0 1 3 4 1 2 2 2 4 4 4 5 10 9 7 7 7 5 2
1 1 2 2 3 4 4 7 3 1 1 4 4 1 1 1 2 2 2 1 1 1 1 1 4 4 2 6 8 3 3 3 3 4 6 1 7 6 12 9 9 7 6 4 3
2 2 1 3 2 2 3 6 4 2 2 0 2 4 4 2 2 3 5 2 2 1 3 2 2 4 9 4 4 4 6 6 5 4 2 4 7 6 13 10 9 8 7 5 3
4 3 0 4 4 3 4 2 4 3 2 1 2 1 1 3 3 3 1 0 3 2 4 1 1 2 7 5 2 2 3 3 3 3 6 6 6 3 7 7 5 8 6 4 3
3 4 2 2 2 4 4 5 5 4 4 3 2 2 2 2 3 2 2 2 1 2 2 2 2 5 5 2 2 4 4 4 3 3 4 5 3 3 5 7 5 5 4 4 3
3 4 3 5 5 4 1 1 6 5 3 6 4 5 3 3 3 4 1 3 3 5 2 3 3 1 5 5 4 8 8 8 6 5 6 6 7 6 8 7 8 7 5 3 1
4 4 1 2 4 11 5 4 6 2 6 3 4 2 2 4 1 1 1 1 1 4 1 2 1 2 5 7 8 11 11 12 13 10 7 7 11 6 1 6 6 7 6 2 3
1 1 3 4 4 5 4 5 6 7 2 1 4 4 3 1 2 3 4 4 3 1 1 2 2 1 4 1 7 8 13 15 12 11 14 16 12 5 4 7 7 6 5 2 3
Wind_Direction
345 345 345 341 336 336 337 335 335 338 337 337 339 338 336 339 323 174 67 282 317 324 333 296 329 341 43 354 48 88 65 267 163 157 186 181 137 9 126 107 63 94 143 172 155
338 337 335 338 338 336 336 335 335 333 332 333 334 335 338 337 331 52 288 317 315 331 22 26 355 346 27 190 15 97 124 210 256 169 165 150 136 154 122 99 97 73 46 90 123
340 340 337 336 338 336 332 332 330 327 327 329 329 332 332 327 300 345 316 320 326 323 253 223 286 274 55 131 180 175 176 177 269 168 123 135 107 159 130 199 205 162 137 127 122
342 341 337 336 333 332 329 327 323 321 323 324 325 329 330 227 317 314 333 338 318 332 262 207 119 77 103 161 276 103 23 154 197 32 91 119 163 109 161 223 146 145 146 145 139
345 345 341 336 332 332 327 323 316 316 320 320 322 330 351 352 1 327 341 335 358 345 343 305 171 157 171 156 100 110 197 82 161 125 113 113 191 219 233 201 141 147 129 135 126
340 343 340 336 335 331 325 320 317 315 315 314 320 326 23 324 305 341 342 349 5 22 356 11 358 338 99 129 145 134 106 142 229 212 157 133 100 22 262 163 161 148 121 167 158
336 339 334 334 333 328 321 317 315 312 313 316 326 332 65 284 350 330 347 292 314 30 358 0 342 319 66 96 332 121 114 330 227 229 187 124 268 231 268 150 166 168 272 152 154
338 334 332 333 330 324 318 316 311 307 304 314 336 61 355 318 320 348 343 345 336 301 66 282 323 327 59 123 39 106 74 93 217 202 195 166 271 209 188 143 183 175 161 162 149
329 330 329 332 328 323 317 315 309 296 270 277 72 67 37 317 26 321 351 312 306 309 286 298 1 95 43 98 26 356 211 189 298 217 147 201 246 285 181 173 196 193 177 165 141
322 327 328 331 329 322 321 318 316 337 293 252 283 21 8 329 309 331 313 325 311 327 33 57 47 81 30 99 209 202 218 239 203 218 192 179 262 278 226 195 226 192 197 175 161
324 329 331 334 331 324 334 17 13 356 39 63 270 253 316 299 291 15 349 331 297 11 95 27 76 205 223 213 84 158 192 239 254 214 196 219 267 266 255 226 247 197 188 192 170
323 326 330 331 331 325 16 66 87 234 320 304 268 265 247 17 329 339 6 25 4 313 56 22 235 239 225 216 220 268 239 246 331 179 133 43 284 280 268 220 201 183 170 175 139
315 324 330 328 322 24 80 85 215 116 277 296 289 276 295 31 342 319 18 322 28 326 152 166 232 299 170 188 181 203 208 210 196 183 23 4 297 350 12 55 78 88 124 121 137
306 321 332 327 58 336 57 325 11 102 65 283 281 290 96 351 332 340 6 84 351 318 340 241 301 293 297 187 118 221 330 195 133 99 222 63 261 293 153 74 56 95 106 116 130
297 317 333 322 218 84 296 325 64 53 17 250 211 184 158 95 283 339 303 13 83 311 75 263 352 345 244 227 156 186 74 61 46 83 49 299 72 262 145 164 152 144 134 140 131
280 307 336 2 18 295 329 349 63 46 259 311 171 214 358 116 262 338 7 40 192 350 342 237 276 238 216 355 237 156 80 57 54 77 13 224 150 265 193 185 153 179 157 145 127
267 287 299 274 201 314 5 52 33 135 340 247 207 187 230 199 216 211 287 322 123 53 349 334 266 289 173 74 344 79 87 10 359 7 226 302 104 242 254 171 157 160 162 161 148
259 285 256 211 245 53 68 59 163 225 216 302 156 263 202 160 241 237 314 321 210 112 88 104 330 202 279 217 187 206 170 167 195 189 249 325 236 265 348 139 140 151 155 156 156
244 243 250 220 166 73 85 109 210 202 178 148 291 184 323 178 186 180 221 241 144 182 150 136 276 262 192 4 118 194 212 235 90 41 66 225 299 355 14 95 132 145 148 166 165
191 196 233 193 99 68 82 236 218 227 141 128 213 195 178 202 168 178 210 276 92 91 140 241 310 204 265 52 262 177 212 68 348 163 232 271 244 225 191 183 166 156 164 159 102
137 202 233 122 67 58 186 227 219 23 80 186 203 266 123 174 192 192 244 330 59 300 129 177 136 291 75 197 188 174 220 180 131 148 166 199 260 218 181 173 166 176 164 140 96
192 206 222 93 107 215 192 203 173 161 36 62 152 207 219 225 224 227 216 228 325 190 124 99 178 246 233 263 216 196 205 164 135 236 207 149 276 319 168 167 158 170 151 132 140
165 197 197 106 184 218 259 198 171 162 168 148 192 218 68 189 237 204 154 215 16 95 160 164 232 332 336 347 342 221 235 223 120 103 190 136 266 46 102 133 164 154 145 124 61
192 170 164 177 201 182 182 209 199 183 171 153 200 222 97 252 237 271 197 211 32 111 101 146 213 189 203 225 9 305 305 254 191 131 184 224 272 150 165 162 173 165 151 112 46
175 218 190 164 205 190 236 261 185 175 204 183 197 198 199 219 215 211 19 353 23 348 69 120 216 251 261 275 271 260 266 272 225 230 198 226 216 232 208 203 186 178 162 128 24
174 150 102 174 132 189 207 236 198 160 152 197 170 161 172 209 230 124 138 203 219 332 88 18 195 330 280 272 276 269 256 246 241 239 238 249 259 237 37 113 157 174 168 163 357
130 67 137 157 139 149 205 201 206 132 12 29 154 154 202 237 203 248 223 262 230 209 264 159 130 69 257 326 321 282 227 227 236 231 230 243 245 197 202 194 167 169 156 83 344